sat.trackr.live / text

‹ back to catalog

ONEWEB-0300

NORAD 49089 · 2021-075Q

PAYLOAD ACTIVE UNKNOWN

§ Identity

Operator
Country
UK
Launch date
2021-08-21
Launch site
TYMSC
Launch vehicle
Mass (kg)
RCS (m²)

Purposes: comms

External: N2YO · Heavens-Above · Gunter

§ Orbital elements

Epoch: 2026-09-20T00:28:13.631808Z

Period
109.72 min
Inclination
87.8987°
Eccentricity
0.0002314
Mean motion
13.12443705 rev/d
Perigee alt
1,212.0 km
Apogee alt
1,215.5 km
Semi-major
7,591.9 km
B*
5.1387e-4
RAAN
331.8337°
Arg perigee
97.0435°
Mean anomaly
263.0956°
Rev number
24,764

§ Raw data

ONEWEB-03001 49089U 21075Q   26263.01960222  .00000198  00000+0  51387-3 0  99902 49089  87.8987 331.8337 0002314  97.0435 263.0956 13.12443705247649

JSON: /api/v1/satellites/49089 · /tle

For live sub-satellite position, see the globe view (requires WebGL).

§ Visibility from observer

Set your observer location to see the next 7 days of passes ≥ 10°. The values pass through the URL so the page stays shareable.

No JS? Fill the form by hand. The geolocation button needs JavaScript.